EW6254 Weather Reports


time (UTC)temp
C
wind
direction
speed
KPH
gust
KPH
rain 1hr
cm
rain 24hr
cm
rain mn
cm
humidity
%
barometer
mb
20180619141551 21 205 0.0 0.0 0.00 4.55 3.02 94 1011.1
20180619140528 21 193 0.0 0.0 0.00 4.55 3.02 94 1010.9
20180619135510 21 95 0.0 0.0 0.00 4.55 3.02 94 1010.8
20180619134451 21 22 0.0 0.0 0.00 4.52 3.02 94 1010.6
20180619133441 21 5 0.0 0.0 0.10 4.52 3.02 94 1011.2
20180619132425 21 22 0.0 0.0 0.10 4.52 3.02 94 1011.3
20180619131401 21 19 0.0 0.0 0.18 4.50 2.97 94 1010.7
20180619130328 21 29 0.0 0.0 0.23 4.47 2.95 94 1011.2
20180619125332 21 345 0.0 0.0 0.18 4.42 2.92 94 1010.9
20180619124344 21 131 0.0 0.0 0.36 4.39 2.90 94 1010.7
20180619123342 22 155 0.0 0.0 0.00 4.24 2.72 94 1010.3
20180619122317 21 142 0.0 0.0 0.10 4.24 2.72 94 1010.4
20180619121324 22 81 0.0 0.0 0.28 4.24 2.72 93 1010.6
20180619120305 22 110 0.0 0.0 1.55 4.19 2.67 93 1010.3
20180619115323 22 207 0.0 0.0 2.31 3.86 2.41 93 1010.3
20180619114252 22 228 0.0 0.0 0.74 3.76 2.26 93 1009.6
20180619113307 22 131 0.0 0.0 1.17 3.38 1.88 92 1009.6
20180619112313 22 143 0.0 0.0 0.00 3.25 1.73 92 1009.5
20180619111328 21 144 0.0 0.0 0.00 3.23 1.70 91 1009.4
20180619110318 21 140 0.0 0.0 0.00 3.23 1.70 91 1009.6
20180619105322 21 200 0.0 0.0 0.00 3.23 1.70 91 1009.6
20180619104254 21 200 0.0 0.0 0.00 3.23 1.70 91 1009.7
20180619103239 21 200 0.0 0.0 0.00 3.23 1.70 91 1010.0
20180619102250 21 200 0.0 0.0 0.00 3.23 1.70 91 1010.1
20180619101303 21 200 0.0 0.0 0.00 3.23 1.70 91 1009.8
20180619100808 21 200 0.0 0.0 0.00 3.20 1.70 91 1009.7
20180619095756 21 200 0.0 0.0 0.00 3.20 1.70 90 1009.6
20180619094719 21 202 0.0 0.0 0.00 3.20 1.70 90 1009.3
20180619093717 21 201 0.0 0.0 0.00 3.20 1.70 90 1009.2
20180619092658 21 200 0.0 0.0 0.00 3.20 1.70 90 1009.1
20180619091719 21 166 0.0 0.0 0.00 3.20 1.70 90 1009.3
20180619090738 21 138 0.0 0.0 0.00 3.20 1.70 90 1009.2
20180619085718 21 154 0.0 0.0 0.00 3.20 1.70 90 1009.3
20180619084733 21 149 0.0 0.0 0.00 3.20 1.70 90 1009.4
20180619083719 21 136 0.0 0.0 0.00 3.20 1.70 90 1009.6
20180619082643 21 155 0.0 0.0 0.00 3.20 1.70 90 1009.7
20180619081702 21 150 0.0 0.0 0.00 3.20 1.70 91 1009.6
20180619080648 21 135 0.0 0.0 0.00 3.20 1.70 90 1009.6
20180619075624 22 140 0.0 0.0 0.00 3.20 1.70 90 1009.5
20180619074636 22 132 0.0 0.0 0.00 3.20 1.70 90 1009.7
20180619073618 22 117 0.0 0.0 0.00 3.20 1.70 91 1009.7
20180619072629 22 146 0.0 0.0 0.00 3.20 1.70 91 1009.9
20180619071631 22 134 0.0 0.0 0.00 3.20 1.70 91 1009.7
20180619070645 22 146 0.0 0.0 0.00 3.20 1.70 91 1009.7
20180619065650 22 131 0.0 0.0 0.00 3.20 1.70 90 1009.7
20180619064650 21 149 0.0 0.0 0.00 3.20 1.70 90 1009.8
20180619063625 21 142 0.0 0.0 0.00 3.20 1.70 90 1009.9
20180619062636 21 140 0.0 0.0 0.00 3.20 1.70 90 1009.4
20180619061605 21 143 0.0 0.0 0.00 3.20 1.70 91 1009.6
20180619060545 21 134 0.0 0.0 0.00 3.20 1.70 92 1009.8
20180619055602 21 143 0.0 0.0 0.00 3.20 1.70 92 1010.3
20180619054536 21 145 0.0 0.0 0.00 3.20 1.70 93 1010.3
20180619053551 21 144 0.0 0.0 0.00 3.20 1.70 93 1010.8
20180619052521 20 126 0.0 0.0 0.18 3.20 1.70 93 1011.0
20180619051527 21 160 0.0 0.0 1.17 3.17 1.68 92 1010.5
20180619050501 21 0 0.0 0.0 5.89 1.47 0.66 92 1012.3
20180619045430 21 0 0.0 0.0 0.36 1.27 1.27 90 1012.2
20180619044449 21 0 0.0 0.0 0.00 1.17 1.17 90 1010.1
20180619043435 21 0 0.0 0.0 0.00 1.17 1.17 91 1009.8
20180619042431 21 0 0.0 0.0 0.00 1.17 1.17 92 1010.1
20180619041427 21 0 0.0 0.0 0.00 1.17 1.17 92 1010.1
20180619040437 21 0 0.0 0.0 0.00 1.17 1.17 92 1010.2
20180619035407 21 0 0.0 0.0 0.00 1.17 1.17 93 1010.7
20180619034417 21 0 0.0 0.0 0.00 1.17 1.17 93 1010.7
20180619033421 21 0 0.0 0.0 0.00 1.17 1.17 93 1010.8
20180619032357 21 0 0.0 0.0 0.00 1.17 1.17 93 1010.4
20180619031413 21 0 0.0 0.0 0.00 1.17 1.17 93 1010.6
20180619030403 21 0 0.0 0.0 0.00 1.17 1.17 93 1010.4
20180619025350 21 0 0.0 0.0 0.00 1.17 1.17 93 1010.3
20180619024335 21 0 0.0 0.0 0.00 1.17 1.17 93 1010.1
20180619023358 21 0 0.0 0.0 0.00 1.17 1.17 93 1010.0
20180619022328 21 0 0.0 0.0 0.00 1.17 1.17 93 1009.8
20180619021313 21 0 0.0 0.0 0.00 1.17 1.17 93 1009.5
20180619020325 21 0 0.0 0.0 0.00 1.17 1.17 93 1009.4
20180619015328 21 0 0.0 0.0 0.00 1.17 1.17 93 1009.1
20180619014316 21 0 0.0 0.0 0.00 1.17 1.17 93 1009.3
20180619013327 21 0 0.0 0.0 0.00 1.17 1.17 93 1009.3
20180619012319 21 0 0.0 0.0 0.00 1.17 1.17 93 1009.5
20180619011308 21 0 0.0 0.0 0.00 1.17 1.17 93 1009.2
20180619010323 21 0 0.0 0.0 0.00 1.17 1.17 93 1009.0
20180619005315 21 0 0.0 0.0 0.00 1.17 1.17 94 1009.1
20180619004318 21 0 0.0 0.0 0.00 1.17 1.17 93 1009.0
20180619003242 21 0 0.0 0.0 0.00 1.17 1.17 93 1009.1
20180619002227 21 0 0.0 0.0 0.00 1.17 1.17 93 1008.9
20180619001222 21 0 0.0 0.0 0.00 1.17 1.17 92 1008.7
20180619000157 21 0 0.0 0.0 0.00 1.17 1.17 92 1008.5
20180618235219 22 0 0.0 0.0 0.13 1.17 1.17 92 1008.3
20180618234223 22 0 0.0 0.0 0.13 1.17 1.17 91 1008.5
20180618233237 22 0 0.0 0.0 0.15 1.14 1.14 91 1008.8
20180618232243 23 275 0.0 0.0 0.36 1.14 1.12 92 1009.3
20180618231225 23 295 0.0 0.0 0.00 1.07 1.04 92 1008.8
20180618230213 23 138 0.0 0.0 0.00 1.07 1.04 91 1008.5
20180618225145 23 137 0.0 0.0 0.00 1.07 1.04 91 1007.9
20180618224155 23 0 0.0 0.0 0.13 1.07 1.04 91 1007.5
20180618223151 23 132 0.0 0.0 0.51 1.07 1.04 90 1007.9
20180618222204 23 0 0.0 0.0 0.00 0.99 0.97 88 1008.0
20180618221154 23 0 0.0 0.0 0.13 0.97 0.94 86 1007.2
20180618220212 23 0 0.0 0.0 0.53 0.97 0.94 86 1006.8
20180618215218 23 136 0.0 0.0 0.84 0.51 0.51 83 1008.0
20180618214231 25 78 0.0 0.0 0.00 0.41 0.36 82 1008.4
20180618213221 24 103 0.0 0.0 0.00 0.41 0.36 87 1007.9
20180618212153 25 117 0.0 0.0 0.00 0.38 0.36 91 1007.6
20180618211215 23 0 0.0 0.0 0.18 0.38 0.36 91 1007.7
20180618210146 23 0 0.0 0.0 1.50 0.33 0.30 88 1008.0
20180618205208 23 0 0.0 0.0 2.41 0.08 0.05 82 1008.5
20180618204155 25 0 0.0 0.0 0.00 0.08 0.00 70 1008.3
20180618203121 30 5 0.0 0.0 0.00 0.10 0.00 57 1008.9
20180618202117 32 138 0.0 0.0 0.00 0.10 0.00 59 1008.1
20180618201048 32 128 0.0 0.0 0.00 0.10 0.00 59 1007.6
20180618200037 32 115 0.0 0.0 0.00 0.10 0.00 59 1007.9
20180618195000 32 338 0.0 0.0 0.00 0.10 0.00 61 1008.1
20180618194002 32 147 0.0 0.0 0.00 0.10 0.00 61 1008.2
20180618192943 32 173 0.0 0.0 0.00 0.10 0.00 61 1008.5
20180618191924 32 189 0.0 0.0 0.00 0.10 0.00 61 1008.6
20180618190900 31 162 0.0 0.0 0.00 0.10 0.00 62 1008.9
20180618185832 31 187 0.0 0.0 0.00 0.10 0.00 63 1009.4
20180618184849 31 149 0.0 0.0 0.00 0.10 0.00 64 1009.1
20180618183814 31 205 0.0 0.0 0.00 0.10 0.00 62 1009.2
20180618182810 31 227 0.0 0.0 0.00 0.10 0.00 61 1009.4
20180618181819 31 271 0.0 0.0 0.00 0.10 0.00 60 1009.4
20180618180814 32 223 0.0 0.0 0.00 0.10 0.00 61 1009.5
20180618175758 32 190 0.0 0.0 0.00 0.10 0.00 59 1009.7
20180618174819 32 229 0.0 0.0 0.00 0.10 0.00 61 1009.8
20180618173820 32 205 0.0 0.0 0.00 0.10 0.00 59 1009.8
20180618172836 32 174 0.0 0.0 0.00 0.10 0.00 60 1009.7
20180618171840 32 167 0.0 0.0 0.00 0.10 0.00 61 1009.8
20180618170832 31 171 0.0 0.0 0.00 0.10 0.00 61 1009.8
20180618165845 31 209 0.0 0.0 0.00 0.10 0.00 63 1009.9
20180618164829 31 235 0.0 0.0 0.00 0.10 0.00 63 1010.0
20180618163851 31 205 0.0 0.0 0.00 0.10 0.00 63 1010.1
20180618162909 31 254 0.0 0.0 0.00 0.10 0.00 63 1010.1
20180618161925 30 202 0.0 0.0 0.00 0.10 0.00 64 1010.0
20180618160851 30 184 0.0 0.0 0.00 0.10 0.00 64 1010.0
20180618155827 30 240 0.0 0.0 0.00 0.10 0.00 65 1010.1
20180618154835 30 125 0.0 0.0 0.00 0.10 0.00 66 1010.2
20180618153815 30 182 0.0 0.0 0.00 0.10 0.00 66 1010.1
20180618152824 29 275 0.0 0.0 0.00 0.10 0.00 66 1010.0
20180618151748 29 163 0.0 0.0 0.00 0.10 0.00 67 1010.1
20180618150808 28 144 0.0 0.0 0.00 0.10 0.00 70 1010.0
20180618145753 28 251 0.0 0.0 0.00 0.10 0.00 70 1010.0
20180618144756 27 212 0.0 0.0 0.00 0.10 0.00 71 1010.2
20180618143801 27 144 0.0 0.0 0.00 0.10 0.00 73 1010.3
20180618142746 27 189 0.0 0.0 0.00 0.10 0.00 74 1010.4